Weather History for Andravida, Greece

Change the Weather History Date:

Tuesday, March 5, 2013

  Actual Average Record
Temperature  
Mean Temperature 52 °F -  
Max Temperature 64 °F 60 °F 73 °F (2002)
Min Temperature 39 °F 44 °F 39 °F (2013)
Degree Days  
Heating Degree Days 14    
Growing Degree Days 2 (Base 50)    
Moisture  
Dew Point 42 °F    
Average Humidity 68    
Maximum Humidity 93    
Minimum Humidity 35    
Precipitation  
Precipitation 0.00 in - - ()
Sea Level Pressure  
Sea Level Pressure 30.27 in    
Wind  
Wind Speed 1 mph ()    
Max Wind Speed 7 mph    
Max Gust Speed -    
Visibility 6.1 miles    
Events      
Averages and records for this station are not official NWS values.
T = Trace of Precipitation, MM = Missing Value Source: Averaged Metar Reports

Daily Weather History Graph

Daily Weather History Graph

Search for Another Location

Airport:

Trip Planner

Search our weather history database for the weather conditions in past years. The results will help you decide how hot, cold, wet, or windy it might be!

Date:

Astronomy

Mar. 05, 2013 Rise Set
Actual Time 7:00 AM EET 6:32 PM EET
Civil Twilight 6:34 AM EET 6:58 PM EET
Nautical Twilight 6:04 AM EET 7:29 PM EET
Astronomical Twilight 5:33 AM EET 7:59 PM EET
Moon 1:49 AM EET (3/5) 11:57 AM EET (3/5)
Length of Visible Light 12h 24m
Length of Day
11h 31m
Last Quarter, 44% of the Moon is Illuminated
Mar 5
Last Quarter
Mar 11
New
Mar 19
First Quarter
Mar 27
Full
Apr 3
Last Quarter

Hourly Weather History & Observations

Time (EET) Temp. Dew Point Humidity Pressure Visibility Wind Dir Wind Speed Gust Speed Precip Events Conditions
12:20 AM 46.4 °F 42.8 °F 87% 30.18 in 6.2 mi Calm Calm - N/A   Partly Cloudy
12:50 AM 46.4 °F 41.0 °F 81% 30.18 in 6.2 mi Calm Calm - N/A   Partly Cloudy
1:20 AM 46.4 °F 41.0 °F 81% 30.18 in 6.2 mi Calm Calm - N/A   Partly Cloudy
1:50 AM 46.4 °F 41.0 °F 81% 30.18 in 6.2 mi Calm Calm - N/A   Partly Cloudy
2:00 AM 46 °F 41 °F 78% 30.20 in 6 mi Calm Calm - -   Scattered Clouds
4:50 AM 44.6 °F 39.2 °F 81% 30.21 in 6.2 mi Calm Calm - N/A   Partly Cloudy
6:20 AM 41.0 °F 37.4 °F 87% 30.21 in 5.0 mi Calm Calm - N/A   Partly Cloudy
6:50 AM 39.2 °F 37.4 °F 93% 30.24 in 5.0 mi Calm Calm - N/A   Partly Cloudy
7:20 AM 41.0 °F 37.4 °F 87% 30.24 in - Calm Calm - N/A   Clear
7:50 AM 42.8 °F 39.2 °F 87% 30.24 in - Calm Calm - N/A   Clear
8:00 AM 42 °F 40 °F 88% 30.27 in 6 mi Calm Calm - -   Clear
8:20 AM 46.4 °F 44.6 °F 93% 30.27 in - Calm Calm - N/A   Clear
8:50 AM 50.0 °F 44.6 °F 82% 30.27 in - Calm Calm - N/A   Clear
9:20 AM 53.6 °F 44.6 °F 72% 30.27 in - Calm Calm - N/A   Clear
9:50 AM 55.4 °F 44.6 °F 67% 30.30 in - Calm Calm - N/A   Clear
10:20 AM 59.0 °F 46.4 °F 63% 30.30 in - Calm Calm - N/A   Clear
10:50 AM 59.0 °F 44.6 °F 59% 30.30 in - Calm Calm - N/A   Clear
11:50 AM 60.8 °F 42.8 °F 52% 30.30 in - Calm Calm - N/A   Clear
12:20 PM 62.6 °F 41.0 °F 45% 30.30 in - Calm Calm - N/A   Clear
12:50 PM 64.4 °F 41.0 °F 42% 30.30 in - Calm Calm - N/A   Clear
1:20 PM 62.6 °F 42.8 °F 48% 30.27 in - WNW 4.6 mph - N/A   Clear
1:50 PM 64.4 °F 42.8 °F 45% 30.30 in 6.2 mi WNW 4.6 mph - N/A   Mostly Cloudy
2:00 PM 64 °F 43 °F 35% 30.30 in 6 mi WNW 4.6 mph - -   Scattered Clouds
2:20 PM 60.8 °F 41.0 °F 48% 30.27 in 6.2 mi WNW 6.9 mph - N/A   Mostly Cloudy
2:50 PM 60.8 °F 42.8 °F 52% 30.27 in 6.2 mi NW 5.8 mph - N/A   Mostly Cloudy
3:20 PM 62.6 °F 42.8 °F 48% 30.27 in 6.2 mi WNW 5.8 mph - N/A   Mostly Cloudy
3:50 PM 62.6 °F 41.0 °F 45% 30.27 in 6.2 mi NNW 5.8 mph - N/A   Mostly Cloudy
4:20 PM 60.8 °F 42.8 °F 52% 30.27 in 6.2 mi NNW 5.8 mph - N/A   Mostly Cloudy
4:50 PM 60.8 °F 41.0 °F 48% 30.27 in 6.2 mi NNW 4.6 mph - N/A   Mostly Cloudy
5:20 PM 60.8 °F 41.0 °F 48% 30.27 in 6.2 mi NNW 4.6 mph - N/A   Mostly Cloudy
5:50 PM 59.0 °F 41.0 °F 51% 30.27 in 6.2 mi Calm Calm - N/A   Mostly Cloudy
6:20 PM 57.2 °F 42.8 °F 59% 30.27 in 6.2 mi Calm Calm - N/A   Mostly Cloudy
7:20 PM 53.6 °F 42.8 °F 67% 30.30 in 6.2 mi Calm Calm - N/A   Mostly Cloudy
7:50 PM 53.6 °F 44.6 °F 72% 30.30 in 6.2 mi Calm Calm - N/A   Mostly Cloudy
8:00 PM 54 °F 44 °F 59% 30.31 in 6 mi Calm Calm - -   Scattered Clouds
8:20 PM 53.6 °F 44.6 °F 72% 30.30 in 6.2 mi Calm Calm - N/A   Mostly Cloudy
8:50 PM 51.8 °F 46.4 °F 82% 30.30 in 6.2 mi ESE 4.6 mph - N/A   Mostly Cloudy
9:20 PM 51.8 °F 46.4 °F 82% 30.30 in 6.2 mi SE 4.6 mph - N/A   Mostly Cloudy
9:50 PM 50.0 °F 46.4 °F 87% 30.30 in 6.2 mi SE 4.6 mph - N/A   Mostly Cloudy
10:50 PM 50.0 °F 44.6 °F 82% 30.30 in 6.2 mi Calm Calm - N/A   Mostly Cloudy
11:50 PM 50.0 °F 44.6 °F 82% 30.30 in 6.2 mi Calm Calm - N/A   Mostly Cloudy